Location: Marcé
(47.5801°N, 0.3280°W)
Time: 03:52:03
(UTC+01:00)

Vanguard 1 Rocket - Pass Details

Date: 01 December 2021
Orbit: 651 x 4225 km, 34.3° (Epoch: 26 January)

Event Time Altitude Azimuth Distance (km) Brightness Sun altitude
Exits shadow 05:55:00 22° 238° (WSW) 4,214 10.3 -25.1°
Maximum altitude 06:06:06 54° 173° (S) 3,789 10.5 -23.2°
Drops below altitude 10° 06:29:43 10° 106° (ESE) 7,414 13.3 -19.3°
Sets 06:35:52 0° 103° (ESE) 8,456 14.1 -18.3°
